Location: Chapel Hill
(35.9134°N, 79.0560°W)
Time: 11:04:05
(UTC-05:00)

Hubble Space Telescope - Visible Passes

Search period start: 03 December 2021 00:00
Search period end: 13 December 2021 00:00
Orbit: 534 x 538 km, 28.5° (Epoch: 02 December)

Date Brightness Start Highest point End Pass type
(mag) Time Alt. Az. Time Alt. Az. Time Alt. Az.
03 Dec 2.8 05:04:28 19° S 05:04:28 19° S 05:06:50 10° SE visible
04 Dec 3.2 04:54:01 15° S 04:54:01 15° S 04:55:20 10° SSE visible
05 Dec 3.6 04:43:34 11° SSE 04:43:34 11° SSE 04:43:44 10° SSE visible
